Simultaneous Nadir Overpasses (SNOs) Predictions

Prediction of SNOs between METOP-A and NOAA-19 Satellite Orbit:

Table of predicted SNOs for the next 14.0 days since TLE Epoch: 4/10/2020
Index Date (METOP-A) Time (METOP-A) Lat,Lon (METOP-A) SZA (METOP-A ) Date (NOAA-19) Time (NOAA-19) Lat,Lon (NOAA-19) SZA (NOAA-19 ) Distance(km) Time Diff (sec)
1 04/19/2020 07:35:51 80.44, 79.65 69.31 04/19/2020 07:34:55 80.43, 79.77 69.29 2.63 56
2 04/19/2020 08:26:32 -80.45,-112.91 110.70 04/19/2020 08:25:53 -80.43,-113.00 110.73 2.80 39
3 04/19/2020 09:17:13 80.43, 54.18 69.27 04/19/2020 09:16:56 80.43, 54.15 69.27 0.70 17
4 04/19/2020 10:07:54 -80.44,-138.38 110.74 04/19/2020 10:07:53 -80.42,-138.28 110.75 2.98 1
5 04/19/2020 10:58:35 80.42, 28.71 69.23 04/19/2020 10:58:56 80.42, 28.87 69.24 3.08 21
6 04/19/2020 11:49:16 -80.43,-163.86 110.78 04/19/2020 11:49:54 -80.42,-163.91 110.77 1.02 38
7 04/19/2020 12:39:57 80.41, 3.23 69.19 04/19/2020 12:40:57 80.43, 3.25 69.22 2.42 60




NCC Satellite Simultaneous Nadir Overpasses (SNOs) Prediction Service
